Tracking 19720 objects as of 27-Jun-2019
HD Live streaming from Space Station
objects crossing your sky now

EUTELSAT 1-F4 (ECS 4)

Track EUTELSAT 1-F4 (ECS 4) now!
EUTELSAT 1-F4 (ECS 4) is classified as:


NORAD ID: 18351
Int'l Code: 1987-078B
Perigee: 36,185.2 km
Apogee: 36,302.8 km
Inclination: 15.4 °
Period: 1,459.2 minutes
Semi major axis: 42615 km
RCS: 3.9811 m2 (large)
Launch date: September 16, 1987
Source: European Telecommunications Satellite Organization (EUTE)
Launch site: FRENCH GUIANA (FRGUI)
aabbcc
Your satellite tracking list
Your tracking list is empty




NASA's NSSDC Master Catalog

Two Line Element Set (TLE):
1 18351U 87078B   19176.50169955 -.00000007  00000-0  00000+0 0  9999
2 18351  15.4008   2.3439 0013799 345.9831 189.8476  0.98686679101588
Source of the keplerian elements: AFSPC